Location: Unspecified
(34.4950°S, 58.5160°W)
Time: 10:33:16
(UTC+00:00)

Daily predictions for brighter satellites

Satellite Brightness Start Highest point End
(mag) Time Altitude Azimuth Time Altitude Azimuth Time Altitude Azimuth
ARGOS 3.2 22:07:01 10° SSE 22:12:25 61° E 22:17:43 10° N
Cosmos 2278 3.9 22:07:13 10° SSW 22:13:00 82° WNW 22:18:43 10° NNE
USA 238 DEB 4.3 22:06:44 10° NW 22:14:33 76° WSW 22:22:04 10° SSE
USA 238 4.3 22:06:50 10° NW 22:14:39 77° WSW 22:22:10 10° SSE
DELTA 2 R/B (1) 4.2 22:10:06 10° W 22:15:33 52° S 22:21:03 10° ESE
Cosmos 405 Rocket 3.3 22:12:25 10° NNE 22:15:57 34° E 22:19:28 10° SSE
Cosmos 1992 Rocket 4.5 22:11:12 10° N 22:16:04 40° E 22:20:58 10° SSE
SL-16 R/B 2.4 22:13:41 10° S 22:19:14 51° ESE 22:24:45 10° NE
Cosmos 1842 4.2 22:18:49 10° NNE 22:22:06 26° E 22:25:26 10° SSE
Cosmos 1733 Rocket 3.0 22:20:10 10° S 22:24:34 81° E 22:28:57 10° N
COSMOS 2487 3.2 22:24:46 10° NNE 22:27:07 22° E 22:29:30 10° SE
H-2A R/B 3.4 22:23:45 10° S 22:28:25 42° WSW 22:33:03 10° NW
Cosmos 1805 3.2 22:24:40 10° S 22:28:37 85° E 22:32:29 10° N
SMAP 3.7 22:24:26 10° S 22:29:06 62° WSW 22:33:43 10° NNW
Cosmos 1707 4.3 22:28:04 10° NE 22:30:32 16° E 22:33:01 10° SE
CZ-4C R/B 3.8 22:29:10 10° NE 22:32:10 30° ESE 22:35:15 10° S
Cosmos 1242 Rocket 3.5 22:29:00 10° SSW 22:32:28 51° W 22:35:55 10° N
GEOS 3 Rocket 3.7 22:27:43 10° NE 22:33:03 79° SE 22:38:24 10° SSW
Cosmos 1766 3.6 22:31:37 10° S 22:35:21 42° E 22:39:01 10° NNE
Cosmos 2333 Rocket 3.6 22:32:01 10° S 22:36:12 20° ESE 22:39:26 13° E
Meteor 1-13 Rocket 4.5 22:30:51 10° N 22:36:37 82° W 22:42:34 10° S
COSMOS 2455 4.0 22:31:48 10° S 22:36:44 25° SE 22:40:43 14° ENE
Meteor 1-12 Rocket 4.5 22:31:28 10° S 22:37:05 51° E 22:42:44 10° NNE
ADEOS 4.5 22:34:44 10° S 22:39:53 54° WSW 22:44:59 10° NNW
Okean O Rocket 3.1 22:39:45 10° ESE 22:42:20 15° E 22:42:25 15° E
Meteor 2-14 Rocket 4.4 22:36:09 10° S 22:42:23 80° E 22:48:31 10° N
Okean 3 3.6 22:39:52 10° NNE 22:43:56 50° E 22:48:02 10° SSE
Cosmos 1703 Rocket 3.6 22:40:19 10° N 22:44:37 55° E 22:49:00 10° SSE
Cosmos 1464 Rocket 4.4 22:40:59 10° NNW 22:47:11 69° W 22:53:33 10° S
IRIDIUM 106 4.5 22:44:58 10° S 22:50:09 53° E 22:55:15 10° NNE
ATLAS 3B CENTAUR R/B 2.0 22:49:32 10° NNW 22:51:03 17° NNE 22:51:25 16° NNE
Meteor 2-21 Rocket 4.4 22:46:43 10° S 22:52:57 66° E 22:59:03 10° NNE
NOSS 3-3 (A) 3.7 22:48:41 10° SSW 22:54:49 88° ESE 23:00:13 10° NNE
NOSS 3-3 (C) 3.7 22:48:46 10° SSW 22:54:54 87° ESE 23:00:18 10° NNE
Cosmos 2219 Rocket 3.5 22:54:52 10° S 22:59:06 21° ESE 23:00:37 19° E
Nadezhda 4 Rocket 4.0 22:53:45 10° S 23:00:04 83° E 23:06:22 10° N
DNEPR-1 R/B 4.4 22:56:14 10° SW 23:00:58 51° WNW 23:05:05 10° N
Cosmos 1470 3.4 22:58:30 10° SSE 23:02:12 35° E 23:03:30 27° ENE
Cosmos 1908 Rocket 3.5 22:59:26 10° S 23:03:57 74° E 23:08:22 10° NNE
COSMOS 2428 4.3 23:05:24 10° SSE 23:09:03 17° SE 23:09:35 17° ESE
Meteor 2-15 Rocket 4.4 23:03:27 10° N 23:09:29 61° E 23:15:37 10° SSE
YAOGAN 3 4.5 23:05:12 10° SSE 23:09:38 73° ENE 23:13:59 10° N
SAR-Lupe-3 4.4 23:06:23 10° SSE 23:10:03 80° ENE 23:13:40 10° N
Cosmos 1782 Rocket 3.9 23:06:36 10° S 23:10:51 42° E 23:12:28 30° NE
Genesis I 3.3 23:08:29 10° N 23:11:59 44° ENE 23:12:28 41° E
Meteor 2-16 Rocket 4.4 23:07:37 10° S 23:13:48 83° E 23:19:55 10° N
Cosmos 2237 4.5 23:08:48 10° SSW 23:14:34 72° WNW 23:20:16 10° NNE
Cosmos 2360 Rocket 2.1 23:10:50 10° SSW 23:16:34 71° ESE 23:20:24 21° NNE
YAOGAN 1 2.7 23:13:25 10° SSE 23:17:42 49° E 23:21:54 10° N
PAYLOAD B 4.2 23:13:31 10° SSE 23:19:13 82° ENE 23:24:48 10° NNW
Okean 1-7 4.2 23:16:56 10° NNW 23:21:02 44° W 23:25:15 10° S
Cosmos 2242 Rocket 3.7 23:18:16 10° N 23:22:42 80° W 23:27:16 10° S
Cosmos 2333 4.5 23:17:29 10° S 23:23:03 48° ESE 23:24:56 36° ENE
Tiangong 0.5 23:21:33 10° WNW 23:23:20 14° NW 23:24:30 12° NNW
In-Cosmos 22 4.0 23:19:03 10° N 23:24:22 69° E 23:29:54 10° SSE
Cosmos 1626 3.5 23:26:32 26° SSE 23:26:32 26° SSE 23:28:21 10° SSE
Delta 2 Rocket 3.9 23:21:51 10° W 23:27:26 78° S 23:29:18 41° E
Cosmos 1092 Rocket 3.9 23:25:18 10° S 23:31:41 83° E 23:38:03 10° N
Cosmos 1437 Rocket 3.6 23:27:55 10° SSW 23:31:57 53° W 23:35:29 12° N
CZ-4B R/B 3.0 23:26:33 10° SSE 23:31:58 73° ENE 23:37:15 10° N
SJ 16-02 2.4 23:29:46 10° S 23:32:51 30° SE 23:32:51 30° SE
MOS 1-B 4.2 23:29:11 10° SSE 23:35:03 86° ENE 23:40:51 10° NNW
Cosmos 1503 Rocket 4.2 23:30:52 10° S 23:36:03 48° ESE 23:36:25 47° E
Atlas Centaur 2 3.2 23:31:58 10° W 23:37:08 38° NNW 23:39:19 30° NNE
USA 290 2.8 23:34:08 10° SSW 23:36:48 54° SSW 23:36:48 54° SSW
Cosmos 2322 Rocket 3.2 23:33:53 10° SW 23:39:16 45° WNW 23:44:37 10° N
USA 276 3.4 23:36:33 10° WNW 23:38:32 36° WNW 23:38:32 36° WNW
Geosat 4.0 23:37:48 34° NNE 23:40:02 81° WNW 23:45:08 10° SSW
Meteor 1-22 Rocket 4.4 23:36:59 10° SSW 23:42:28 66° W 23:47:16 13° N
DEBRIS 4.5 23:40:13 10° NW 23:40:50 16° NW 23:40:50 16° NW
BREEZE-M R/B 4.1 23:39:21 10° WNW 23:44:02 73° SSW 23:58:29 10° SE
X-37B 3.3 23:44:11 10° SSW 23:44:49 13° SSW 23:44:49 13° SSW
Cosmos 1818 4.3 23:41:21 10° NW 23:46:36 53° WSW 23:51:53 10° SSE
Lacrosse 4 Rocket 3.3 23:44:40 10° SW 23:48:06 26° WNW 23:50:30 15° NNW
H-2A R/B 2.1 23:49:41 73° SSE 23:49:41 73° SSE 23:53:55 10° S
Lacrosse 5 rocket 3.4 23:47:47 10° NW 23:48:30 15° NNW 23:48:30 15° NNW
SL-27 R/B 4.2 23:48:35 10° NW 23:51:30 29° WSW 23:54:27 10° S
ASTRO E2 4.2 23:49:14 10° W 23:51:51 28° NW 23:51:51 28° NW
Cosmos 2322 3.9 23:47:10 10° S 23:52:34 51° ESE 23:52:34 51° ESE
